Home > Time Zones > World Clock > Weather > Canada > Ajax > Past weeks

Flag for Canada Weather past 2 weeks in Ajax, Ontario, Canada

Now
55 °F

Passing clouds.


Feels Like: 53 °F
Forecast: N/A
Wind: 10 mph from Northeast

Location: Toronto Buttonville

Current Time: Sep 18, 2014 at 6:46:34 PM

Latest Report: Sep 18, 2014 at 6:00 PM


Visibility: 15 mi

Pressure: 30.17 "Hg

Humidity: 55%

Dew point: 39 °F

Location of AjaxLocation

Historic Weather in Ajax — Graph

°F

Ajax temperature yesterday

Maximum temperature yesterday: 68 °F (at 2:00 PM)
Minimum temperature yesterday: 43 °F (at 4:00 AM)
Average temperature yesterday: 56 °F

Past Weeks' High & Low Weather Summary

 TemperatureHumidityPressure
High86 °F (Sep 5, 3:00 PM)100% (Sep 4, 4:00 AM)30.36 "Hg (Sep 4, 4:00 AM)
Low39 °F (Sep 14, 7:00 AM)40% (Sep 6, 5:00 PM)29.52 "Hg (Sep 11, 4:00 AM)
Average60 °F77%30.08 "Hg
* Reported Sep 3 6:00 PM — Sep 18 6:00 PM, Ajax, Weather by CustomWeather, © 2014

Note: Actual official high and low records may vary slightly from our data, if they occured in-between our weather recording intervals... More about our weather records

Advertising

Ajax weather history for previous 24 hours

 ConditionsComfort  
Time TempWeatherWind HumidityBarometerVisibility
6:00 PM
Sep 18
55 °FPassing clouds.10 mph55%30.17 "Hg15 mi
5:00 PM55 °FPassing clouds.8 mph51%30.17 "Hg15 mi
4:00 PM57 °FPassing clouds.10 mph51%30.16 "Hg15 mi
3:00 PM57 °FPassing clouds.7 mph59%30.16 "Hg15 mi
2:00 PM55 °FPassing clouds.10 mph59%30.16 "Hg15 mi
1:00 PM52 °FScattered clouds.8 mph72%30.16 "Hg15 mi
12:00 PM50 °FPartly sunny.9 mph76%30.15 "Hg15 mi
11:00 AM50 °FOvercast.8 mph88%30.14 "Hg15 mi
10:51 AMN/ALight rain.9 mphN/AN/A13 mi
10:00 AM50 °FLight rain. Overcast.12 mph88%30.13 "Hg12 mi
9:00 AM52 °FOvercast.9 mph88%30.10 "Hg15 mi
8:45 AMN/AOvercast.9 mphN/AN/A15 mi
8:00 AM52 °FPartly sunny.8 mph88%30.08 "Hg15 mi
7:00 AM54 °FMostly cloudy.9 mph82%30.05 "Hg15 mi
6:00 AM54 °FPassing clouds.5 mph88%30.02 "Hg15 mi
5:00 AM48 °FPassing clouds.2 mph94%30.00 "Hg15 mi
4:00 AM46 °FPassing clouds.No wind100%29.98 "Hg15 mi
3:00 AM48 °FPassing clouds.No wind94%29.98 "Hg15 mi
2:00 AM48 °FPassing clouds.No wind94%29.98 "Hg15 mi
1:00 AM50 °FPassing clouds.No wind94%29.98 "Hg15 mi
12:00 AM52 °FPassing clouds.2 mph82%29.97 "Hg15 mi
11:00 PM
Sep 17
54 °FPassing clouds.2 mph82%29.97 "Hg15 mi
10:00 PM54 °FPassing clouds.No wind88%29.97 "Hg15 mi
9:00 PM57 °FPassing clouds.2 mph77%29.96 "Hg15 mi
8:00 PM61 °FPassing clouds.2 mph68%29.95 "Hg15 mi
7:00 PM64 °FPassing clouds.5 mph56%29.95 "Hg15 mi
6:00 PM68 °FBroken clouds.8 mph46%29.95 "Hg15 mi
Weather by CustomWeather, © 2014

See weather overviewHow to use our weather pages